Location: Eindhoven
(51.4416°N, 5.4697°E)
Time: 18:29:39
(UTC+01:00)

OTV 5 (USA 277) - Pass Details

Date: 30 October 2019
Orbit: 310 x 324 km, 54.5° (Epoch: 17 October)

Event Time Altitude Azimuth Distance (km) Brightness Sun altitude
Rises 18:32:20 0° 204° (SSW) 2,052 ? -12.4°
Reaches altitude 10° 18:34:42 10° 182° (S) 1,228 ? -12.8°
Maximum altitude 18:36:34 17° 139° (SE) 923 ? -13.1°
Enters shadow 18:36:39 17° 136° (SE) 924 ? -13.1°
